Погода в Побочино

Россия / Омская область     54°11′47″N   72°40′32″E
темп.,
°C
ветер,
м/с
пор.,
м/с
влажн.,
%
обл.,
%
осадки,
мм/ч
давл.,
гПа
погр.,
м
28 января, чт
чт2800:00−9з479592 0.1 1030106
03:00−9зюз499688 0.0 1030158
06:00−9зюз5119582 0.0 1031225
09:00−10з5119426 0.0 1031236
12:00−8зюз6109353 0.0 1030272
15:00−6зюз6129189 0.0 1029347
18:00−5зюз7168794 0.0 1029388
21:00−4зюз81685100 0.0 1029426
29 января, пт
пт2900:00−4зюз81884100 0.0 1028450
03:00−4зюз91981100 0.0 1027465
06:00−5зюз81881100 0.0 1028466
09:00−6зюз61585100 0.0 1028402
12:00−6з61486100 0.0 1029382
15:00−6зюз61387100 0.0 1029364
18:00−7зюз41189100 0.0 1030237
21:00−9з3690100 0.0 103088
30 января, сб
сб3000:00−9зюз3489100 0.0 103044
03:00−10зюз348895 0.0 103029
06:00−10зюз238489 0.0 103021
09:00−11ю228083 0.0 103021
12:00−9юв348467 0.0 102976
15:00−8ююв478686 0.0 1028150
18:00−9ююв478493 0.0 1028114
21:00−9ююв588494 0.0 1026129
31 января, вс
вс3100:00−9юв5108397 0.0 1025198
03:00−9ююв51283100 0.0 1024216
06:00−9ююв5983100 0.0 1022179
09:00−10ююв4785100 0.0 1021117
12:00−9ююв4784100 0.0 1020140
15:00−7ююв3486100 0.0 1020125
18:00−10ю1285100 0.0 102021
21:00−13сз118892 0.0 102021
1 февраля, пн
пн100:00−13ссз238968 0.0 102021
03:00−14ссз23930 0.0 102120
06:00−14ссз23950 0.0 102222
09:00−15ссз239711 0.0 102320
12:00−12зсз129511 0.0 102329
15:00−11зюз239546 0.0 102387
18:00−14ююз239423 0.0 102320
21:00−13ю469533 0.0 102287